Zurück zum Katalog

ARIANE 44LP+ R/B

AktivGTO
NORAD 23127·ROCKET BODY·🇫🇷 France

Gestartet Jun 17, 1994 von Guiana Space Centre

Loading…

TLE

AlterndSource: Space-Track

Epoche: Sep 14, 2026, 11:44 UTC

1 23127U 94034D   26257.48927647  .00000062  00000-0  42597-3 0  9992
2 23127   7.3348 276.7936 7225817 196.5699 113.1154  2.26782655263650

Verfolge ARIANE 44LP+ R/B in Echtzeit mit AllMySat

Download on the App Store